CW9825 Weather Reports


time (UTC)temp
C
wind
direction
speed
KPH
gust
KPH
rain 1hr
cm
rain 24hr
cm
rain mn
cm
humidity
%
barometer
mb
20260508213039 18 253 17.7 40.2 0.00 0.00 0.00 32 1003.0
20260508212535 18 26 22.5 40.2 0.00 0.00 0.00 31 1003.0
20260508212032 18 315 17.7 38.6 0.00 0.00 0.00 33 1003.0
20260508211537 18 5 20.9 38.6 0.00 0.00 0.00 32 1003.0
20260508211034 18 213 19.3 41.8 0.00 0.00 0.00 32 1002.9
20260508210532 18 272 22.5 41.8 0.00 0.00 0.00 32 1003.0
20260508210031 18 325 24.1 40.2 0.00 0.00 0.00 32 1002.9
20260508205530 18 278 17.7 38.6 0.00 0.00 0.00 31 1003.0
20260508205030 18 327 17.7 38.6 0.00 0.00 0.00 32 1002.8
20260508204531 18 346 17.7 37.0 0.00 0.00 0.00 32 1002.8
20260508204032 18 325 16.1 46.7 0.00 0.00 0.00 31 1002.9
20260508203529 18 336 24.1 46.7 0.00 0.00 0.00 31 1002.9
20260508203035 18 323 25.7 46.7 0.00 0.00 0.00 33 1002.9
20260508202531 18 320 24.1 49.9 0.00 0.00 0.00 32 1002.9
20260508202029 18 355 29.0 49.9 0.00 0.00 0.00 32 1002.8
20260508201529 18 284 24.1 43.5 0.00 0.00 0.00 32 1002.8
20260508201028 18 321 24.1 45.1 0.00 0.00 0.00 31 1002.8
20260508200528 18 329 19.3 45.1 0.00 0.00 0.00 32 1002.8
20260508200117 18 311 24.1 38.6 0.00 0.00 0.00 32 1002.8
20260508195022 18 310 25.7 48.3 0.00 0.00 0.00 31 1002.8
20260508194530 18 296 24.1 54.7 0.00 0.00 0.00 32 1002.7
20260508194020 18 294 29.0 54.7 0.00 0.00 0.00 32 1002.7
20260508193520 18 290 11.3 41.8 0.00 0.00 0.00 32 1002.7
20260508193019 18 334 22.5 56.3 0.00 0.00 0.00 32 1002.7
20260508192521 18 290 17.7 56.3 0.00 0.00 0.00 31 1002.8
20260508192020 18 315 19.3 41.8 0.00 0.00 0.00 34 1002.6
20260508191526 18 312 20.9 41.8 0.00 0.00 0.00 34 1002.8
20260508191018 18 221 12.9 38.6 0.00 0.00 0.00 34 1002.7
20260508190518 18 231 17.7 46.7 0.00 0.00 0.00 34 1002.8
20260508190018 18 157 20.9 46.7 0.00 0.00 0.00 34 1002.7
20260508185517 18 342 20.9 45.1 0.00 0.00 0.00 33 1002.7
20260508185019 18 319 19.3 33.8 0.00 0.00 0.00 34 1002.6
20260508184518 19 334 19.3 35.4 0.00 0.00 0.00 32 1002.7
20260508184016 19 348 12.9 35.4 0.00 0.00 0.00 30 1002.5
20260508183517 19 278 16.1 46.7 0.00 0.00 0.00 29 1002.5
20260508183023 19 338 17.7 46.7 0.00 0.00 0.00 28 1002.4
20260508182517 19 297 14.5 45.1 0.00 0.00 0.00 28 1002.5
20260508182015 19 308 17.7 45.1 0.00 0.00 0.00 28 1002.5
20260508181514 19 260 11.3 33.8 0.00 0.00 0.00 28 1002.4
20260508181017 20 248 16.1 38.6 0.00 0.00 0.00 26 1002.5
20260508180514 19 302 14.5 38.6 0.00 0.00 0.00 28 1002.5
20260508180015 19 299 12.9 27.4 0.00 0.00 0.00 29 1002.5
20260508175512 19 294 12.9 29.0 0.00 0.00 0.00 27 1002.7
20260508175022 19 355 12.9 41.8 0.00 0.00 0.00 27 1002.7
20260508174513 19 259 19.3 41.8 0.00 0.00 0.00 28 1002.8
20260508174010 18 335 19.3 33.8 0.00 0.00 0.00 26 1002.8
20260508173509 19 276 14.5 27.4 0.00 0.00 0.00 26 1002.8
20260508173008 19 268 12.9 27.4 0.00 0.00 0.00 26 1002.9
20260508172512 18 268 9.7 27.4 0.00 0.00 0.00 28 1002.9
20260508172008 18 275 12.9 27.4 0.00 0.00 0.00 26 1003.1
20260508171506 18 266 8.0 20.9 0.00 0.00 0.00 27 1003.2
20260508171004 18 264 9.7 19.3 0.00 0.00 0.00 28 1003.2
20260508170504 18 285 8.0 20.9 0.00 0.00 0.00 29 1003.3
20260508170002 18 278 4.8 22.5 0.00 0.00 0.00 30 1003.4
20260508165502 18 232 8.0 37.0 0.00 0.00 0.00 30 1003.4
20260508165001 18 271 11.3 37.0 0.00 0.00 0.00 29 1003.6
20260508164602 18 294 9.7 27.4 0.00 0.00 0.00 30 1003.5
20260508164059 17 214 4.8 19.3 0.00 0.00 0.00 30 1003.7
20260508163559 17 194 8.0 24.1 0.00 0.00 0.00 31 1003.8
20260508163056 17 298 3.2 24.1 0.00 0.00 0.00 31 1003.8
20260508162555 17 250 8.0 17.7 0.00 0.00 0.00 32 1003.9
20260508162055 17 250 4.8 16.1 0.00 0.00 0.00 31 1003.9
20260508161553 17 220 8.0 17.7 0.00 0.00 0.00 30 1004.0
20260508161052 16 219 1.6 19.3 0.00 0.00 0.00 32 1004.0
20260508160551 16 220 11.3 19.3 0.00 0.00 0.00 32 1004.0
20260508160050 16 202 4.8 20.9 0.00 0.00 0.00 33 1004.0
20260508155549 16 218 9.7 20.9 0.00 0.00 0.00 31 1004.1
20260508155050 16 254 6.4 19.3 0.00 0.00 0.00 32 1004.1
20260508154606 16 261 3.2 14.5 0.00 0.00 0.00 34 1004.1
20260508154046 15 304 8.0 14.5 0.00 0.00 0.00 33 1004.2
20260508153545 15 234 4.8 14.5 0.00 0.00 0.00 34 1004.2
20260508153046 15 321 3.2 17.7 0.00 0.00 0.00 36 1004.2
20260508152543 15 175 9.7 19.3 0.00 0.00 0.00 34 1004.2
20260508152041 14 193 4.8 12.9 0.00 0.00 0.00 40 1004.2
20260508151640 13 208 8.0 12.9 0.00 0.00 0.00 39 1004.3
20260508151038 13 202 4.8 12.9 0.00 0.00 0.00 40 1004.3
20260508150538 13 220 3.2 16.1 0.00 0.00 0.00 40 1004.3
20260508150040 13 226 8.0 16.1 0.00 0.00 0.00 40 1004.5
20260508145537 13 216 6.4 20.9 0.00 0.00 0.00 41 1004.5
20260508145038 13 206 9.7 20.9 0.00 0.00 0.00 40 1004.6
20260508144539 13 205 11.3 17.7 0.00 0.00 0.00 40 1004.6
20260508144036 13 193 12.9 17.7 0.00 0.00 0.00 39 1004.6
20260508143538 13 224 4.8 19.3 0.00 0.00 0.00 39 1004.6
20260508143034 13 211 9.7 19.3 0.00 0.00 0.00 39 1004.6
20260508142534 13 185 9.7 16.1 0.00 0.00 0.00 39 1004.5
20260508142034 12 216 4.8 14.5 0.00 0.00 0.00 41 1004.5
20260508141533 12 215 8.0 14.5 0.00 0.00 0.00 41 1004.6
20260508141028 12 205 4.8 14.5 0.00 0.00 0.00 41 1004.7
20260508140528 12 183 6.4 14.5 0.00 0.00 0.00 41 1004.8
20260508140025 11 215 6.4 14.5 0.00 0.00 0.00 41 1004.8
20260508135524 11 180 9.7 16.1 0.00 0.00 0.00 41 1004.8
20260508135022 11 209 8.0 14.5 0.00 0.00 0.00 43 1004.9
20260508134521 11 187 6.4 14.5 0.00 0.00 0.00 44 1005.1
20260508134019 11 214 6.4 12.9 0.00 0.00 0.00 44 1005.2
20260508133518 11 198 4.8 11.3 0.00 0.00 0.00 45 1005.2
20260508133024 10 195 3.2 11.3 0.00 0.00 0.00 49 1005.2
20260508132517 10 212 3.2 9.7 0.00 0.00 0.00 50 1005.3
20260508132014 9 179 3.2 9.7 0.00 0.00 0.00 51 1005.3
20260508131512 9 211 3.2 6.4 0.00 0.00 0.00 52 1005.4
20260508131010 8 208 3.2 8.0 0.00 0.00 0.00 53 1005.4
20260508130508 8 194 3.2 9.7 0.00 0.00 0.00 53 1005.3
20260508130011 7 192 4.8 8.0 0.00 0.00 0.00 54 1005.5
20260508125506 7 179 1.6 9.7 0.00 0.00 0.00 55 1005.4
20260508125004 7 208 3.2 9.7 0.00 0.00 0.00 55 1005.5
20260508124504 7 169 3.2 8.0 0.00 0.00 0.00 56 1005.5
20260508124003 6 161 3.2 8.0 0.00 0.00 0.00 56 1005.6
20260508123501 6 178 1.6 4.8 0.00 0.00 0.00 57 1005.6
20260508123002 6 178 1.6 8.0 0.00 0.00 0.00 58 1005.6
20260508122501 5 175 1.6 8.0 0.00 0.00 0.00 59 1005.6
20260508122059 5 178 1.6 9.7 0.00 0.00 0.00 59 1005.5
20260508121559 5 188 1.6 6.4 0.00 0.00 0.00 59 1005.6
20260508121057 5 190 3.2 6.4 0.00 0.00 0.00 59 1005.6
20260508120556 5 185 1.6 6.4 0.00 0.00 0.00 59 1005.6
20260508120058 5 182 1.6 6.4 0.00 0.00 0.00 60 1005.7
20260508115556 4 182 1.6 6.4 0.00 0.00 0.00 61 1005.8
20260508115057 4 182 1.6 6.4 0.00 0.00 0.00 61 1005.6
20260508114554 3 180 3.2 8.0 0.00 0.00 0.00 61 1005.7
20260508114052 3 187 1.6 8.0 0.00 0.00 0.00 61 1005.8
20260508113551 3 191 4.8 8.0 0.00 0.00 0.00 61 1005.8
20260508113051 3 187 3.2 9.7 0.00 0.00 0.00 61 1005.8
20260508112550 3 177 3.2 8.0 0.00 0.00 0.00 61 1005.8
20260508112050 3 165 3.2 9.7 0.00 0.00 0.00 62 1005.8
20260508111552 3 171 3.2 8.0 0.00 0.00 0.00 62 1005.8
20260508111048 3 171 1.6 4.8 0.00 0.00 0.00 62 1005.9
20260508110547 3 169 0.0 4.8 0.00 0.00 0.00 62 1005.9
20260508110047 3 169 0.0 3.2 0.00 0.00 0.00 62 1006.1
20260508105548 3 169 0.0 3.2 0.00 0.00 0.00 61 1006.0
20260508105046 3 169 0.0 4.8 0.00 0.00 0.00 61 1006.1
20260508104546 3 169 1.6 8.0 0.00 0.00 0.00 61 1006.0
20260508104045 3 171 4.8 8.0 0.00 0.00 0.00 60 1006.0
20260508103545 3 160 3.2 8.0 0.00 0.00 0.00 60 1006.1
20260508103044 3 185 3.2 6.4 0.00 0.00 0.00 61 1006.1
20260508102542 3 169 3.2 8.0 0.00 0.00 0.00 62 1006.1
20260508102045 3 162 3.2 4.8 0.00 0.00 0.00 61 1006.2
20260508101542 3 161 0.0 3.2 0.00 0.00 0.00 62 1006.2
20260508101041 3 161 1.6 4.8 0.00 0.00 0.00 63 1006.2
20260508100540 3 161 1.6 8.0 0.00 0.00 0.00 63 1006.2
20260508100051 3 159 3.2 8.0 0.00 0.00 0.00 63 1006.4
20260508095540 3 122 1.6 4.8 0.00 0.00 0.00 64 1006.4
20260508095036 3 98 1.6 4.8 0.00 0.00 0.00 65 1006.4
20260508094539 4 53 0.0 3.2 0.00 0.00 0.00 65 1006.5
20260508094035 4 53 1.6 4.8 0.00 0.00 0.00 65 1006.5
20260508093534 4 53 1.6 4.8 0.00 0.00 0.00 65 1006.6
20260508093034 4 351 0.0 0.0 0.00 0.00 0.00 65 1006.6
20260508092534 4 355 0.0 0.0 0.00 0.00 0.00 64 1006.6
20260508092032 4 355 0.0 0.0 0.00 0.00 0.00 63 1006.7
20260508091533 4 355 0.0 0.0 0.00 0.00 0.00 64 1006.6
20260508091034 4 355 0.0 0.0 0.00 0.00 0.00 66 1006.7
20260508090535 3 355 0.0 0.0 0.00 0.00 0.00 65 1006.8
20260508090048 3 355 0.0 0.0 0.00 0.00 0.00 66 1006.8
20260508085531 3 355 0.0 0.0 0.00 0.00 0.00 65 1006.8
20260508085031 3 355 0.0 0.0 0.00 0.00 0.00 65 1006.8
20260508084531 3 355 0.0 0.0 0.00 0.00 0.00 65 1006.8
20260508084030 3 355 0.0 0.0 0.00 0.00 0.00 65 1006.8
20260508083533 3 355 0.0 0.0 0.00 0.00 0.00 65 1006.8
20260508083030 3 355 0.0 0.0 0.00 0.00 0.00 65 1006.8
20260508082528 3 355 0.0 0.0 0.00 0.00 0.00 64 1006.8
20260508082028 3 355 0.0 0.0 0.00 0.00 0.00 63 1006.7
20260508081532 3 355 0.0 0.0 0.00 0.00 0.00 62 1006.8
20260508081027 3 355 0.0 1.6 0.00 0.00 0.00 62 1006.8
20260508080531 3 355 0.0 1.6 0.00 0.00 0.00 61 1007.0
20260508080025 3 355 0.0 1.6 0.00 0.00 0.00 60 1007.0
20260508075525 4 355 0.0 1.6 0.00 0.00 0.00 60 1007.0
20260508075025 4 355 0.0 3.2 0.00 0.00 0.00 60 1007.0
20260508074526 4 355 1.6 3.2 0.00 0.00 0.00 60 1007.0
20260508074023 4 355 0.0 3.2 0.00 0.00 0.00 59 1007.1
20260508073523 4 355 0.0 1.6 0.00 0.00 0.00 59 1007.0
20260508073025 4 355 0.0 3.2 0.00 0.00 0.00 59 1007.1
20260508072521 4 355 1.6 3.2 0.00 0.00 0.00 59 1007.1
20260508072021 4 355 1.6 3.2 0.00 0.00 0.00 60 1007.1
20260508071526 4 355 0.0 4.8 0.00 0.00 0.00 60 1007.2
20260508071022 4 355 1.6 4.8 0.00 0.00 0.00 60 1007.2
20260508070520 4 355 0.0 4.8 0.00 0.00 0.00 61 1007.3
20260508070020 4 355 0.0 3.2 0.00 0.00 0.00 61 1007.3
20260508065520 4 355 0.0 3.2 0.00 0.00 0.00 61 1007.3
20260508065023 4 355 1.6 3.2 0.00 0.00 0.00 61 1007.3
20260508064519 4 19 0.0 0.0 0.00 0.00 0.00 57 1007.3
20260508064017 3 19 0.0 0.0 0.00 0.00 0.00 57 1007.3
20260508063519 3 19 0.0 0.0 0.00 0.00 0.00 57 1007.2
20260508063016 3 19 0.0 0.0 0.00 0.00 0.00 56 1007.3
20260508062514 4 19 0.0 1.6 0.00 0.00 0.00 55 1007.2
20260508062014 4 21 0.0 1.6 0.00 0.00 0.00 55 1007.3
20260508061514 4 26 0.0 0.0 0.00 0.00 0.00 54 1007.2
20260508061014 4 26 0.0 0.0 0.00 0.00 0.00 54 1007.3
20260508060514 4 26 0.0 0.0 0.00 0.00 0.00 55 1007.3
20260508060013 4 26 0.0 0.0 0.00 0.00 0.00 55 1007.3
20260508055512 4 26 0.0 0.0 0.00 0.00 0.00 54 1007.3
20260508055013 4 26 0.0 0.0 0.00 0.00 0.00 54 1007.3
20260508054511 4 26 0.0 0.0 0.00 0.00 0.00 53 1007.3
20260508054013 5 26 0.0 0.0 0.00 0.00 0.00 53 1007.3
20260508053508 5 26 0.0 0.0 0.00 0.00 0.00 52 1007.3
20260508053011 5 26 0.0 0.0 0.00 0.00 0.00 52 1007.3
20260508052506 5 26 0.0 0.0 0.00 0.00 0.00 51 1007.3
20260508052005 5 26 0.0 0.0 0.00 0.00 0.00 50 1007.3
20260508051504 6 26 0.0 0.0 0.00 0.00 0.00 50 1007.3
20260508051005 6 26 0.0 0.0 0.00 0.00 0.00 49 1007.3
20260508050501 6 26 0.0 0.0 0.00 0.00 0.00 50 1007.3
20260508050104 6 26 0.0 0.0 0.00 0.00 0.00 50 1007.3
20260508045559 6 24 0.0 1.6 0.00 0.00 0.00 51 1007.3
20260508045100 7 23 0.0 1.6 0.00 0.00 0.00 49 1007.3
20260508044601 7 23 0.0 1.6 0.00 0.00 0.00 48 1007.3
20260508044059 7 23 0.0 0.0 0.00 0.00 0.00 47 1007.3
20260508043602 7 23 0.0 1.6 0.00 0.00 0.00 46 1007.3
20260508043059 8 23 0.0 1.6 0.00 0.00 0.00 45 1007.3
20260508042559 8 23 0.0 1.6 0.00 0.00 0.00 45 1007.4
20260508042058 8 23 0.0 3.2 0.00 0.00 0.00 44 1007.4
20260508041559 8 23 0.0 3.2 0.00 0.00 0.00 43 1007.5
20260508041058 8 23 1.6 3.2 0.00 0.00 0.00 43 1007.5
20260508040558 8 23 0.0 3.2 0.00 0.00 0.00 42 1007.5
20260508040101 9 23 0.0 3.2 0.00 0.00 0.00 42 1007.5
20260508035559 9 22 0.0 3.2 0.00 0.00 0.00 41 1007.5
20260508035058 9 22 1.6 3.2 0.00 0.00 0.00 42 1007.5
20260508034558 9 22 0.0 1.6 0.00 0.00 0.00 42 1007.5
20260508034057 8 22 0.0 1.6 0.00 0.00 0.00 43 1007.5
20260508033557 9 22 0.0 1.6 0.00 0.00 0.00 42 1007.5
20260508033100 9 22 0.0 1.6 0.00 0.00 0.00 41 1007.6
20260508032559 10 22 0.0 3.2 0.00 0.00 0.00 40 1007.5
20260508032059 10 22 0.0 3.2 0.00 0.00 0.00 39 1007.6
20260508031600 10 22 0.0 4.8 0.00 0.00 0.00 39 1007.6
20260508031056 10 22 1.6 4.8 0.00 0.00 0.00 38 1007.7
20260508030557 10 22 1.6 4.8 0.00 0.00 0.00 38 1007.6
20260508025559 11 20 0.0 4.8 0.00 0.00 0.00 38 1007.6
20260508025056 11 20 3.2 4.8 0.00 0.00 0.00 38 1007.6
20260508024618 11 19 1.6 4.8 0.00 0.00 0.00 38 1007.6
20260508024055 11 19 1.6 6.4 0.00 0.00 0.00 38 1007.6
20260508023555 11 18 3.2 6.4 0.00 0.00 0.00 38 1007.6
20260508023055 11 17 3.2 4.8 0.00 0.00 0.00 38 1007.6
20260508022556 11 17 1.6 4.8 0.00 0.00 0.00 37 1007.5
20260508022055 12 17 1.6 4.8 0.00 0.00 0.00 37 1007.4
20260508021604 12 17 0.0 4.8 0.00 0.00 0.00 36 1007.4
20260508021054 12 17 1.6 4.8 0.00 0.00 0.00 36 1007.3
20260508020554 12 17 1.6 4.8 0.00 0.00 0.00 36 1007.2
20260508020057 12 17 1.6 4.8 0.00 0.00 0.00 36 1007.2
20260508015554 13 17 1.6 6.4 0.00 0.00 0.00 35 1007.2
20260508015054 13 18 3.2 6.4 0.00 0.00 0.00 35 1007.1
20260508014556 13 16 3.2 6.4 0.00 0.00 0.00 33 1007.1
20260508014054 13 23 3.2 8.0 0.00 0.00 0.00 33 1007.0
20260508013552 14 12 3.2 12.9 0.00 0.00 0.00 32 1007.0
20260508013053 14 39 6.4 12.9 0.00 0.00 0.00 32 1007.0
20260508012553 14 5 4.8 12.9 0.00 0.00 0.00 32 1007.0
20260508012052 14 355 4.8 17.7 0.00 0.00 0.00 32 1006.9
20260508011601 14 343 8.0 17.7 0.00 0.00 0.00 31 1006.9
20260508011052 15 355 8.0 19.3 0.00 0.00 0.00 31 1006.8
20260508010552 15 328 4.8 22.5 0.00 0.00 0.00 30 1006.7
20260508010056 15 350 9.7 20.9 0.00 0.00 0.00 29 1006.7
20260508005555 15 329 14.5 20.9 0.00 0.00 0.00 29 1006.6
20260508005051 15 302 8.0 19.3 0.00 0.00 0.00 28 1006.6
20260508004559 15 327 8.0 19.3 0.00 0.00 0.00 29 1006.6
20260508004051 15 305 3.2 19.3 0.00 0.00 0.00 28 1006.6
20260508003551 16 298 6.4 17.7 0.00 0.00 0.00 28 1006.6
20260508003051 16 308 9.7 22.5 0.00 0.00 0.00 27 1006.6
20260508002551 16 303 8.0 22.5 0.00 0.00 0.00 28 1006.5
20260508002051 16 315 11.3 19.3 0.00 0.00 0.00 28 1006.6
20260508001551 16 316 11.3 19.3 0.00 0.00 0.00 28 1006.6
20260508001050 16 259 8.0 19.3 0.00 0.00 0.00 28 1006.6
20260508000550 16 316 9.7 20.9 0.00 0.00 0.00 28 1006.6
20260508000052 16 289 9.7 25.7 0.00 0.00 0.00 28 1006.7
20260507235550 16 287 11.3 33.8 0.00 0.00 0.00 28 1006.6
20260507235049 16 360 14.5 33.8 0.00 0.00 0.00 28 1006.6
20260507234549 16 258 11.3 24.1 0.00 0.00 0.00 28 1006.7
20260507234048 16 269 8.0 24.1 0.00 0.00 0.00 28 1006.6
20260507233548 16 346 4.8 24.1 0.00 0.00 0.00 28 1006.8
20260507233048 16 286 8.0 24.1 0.00 0.00 0.00 28 1006.8
20260507232547 16 293 8.0 24.1 0.00 0.00 0.00 29 1006.8
20260507232048 16 286 8.0 24.1 0.00 0.00 0.00 28 1006.9
20260507231546 16 327 6.4 29.0 0.00 0.00 0.00 28 1006.8
20260507231046 16 302 14.5 29.0 0.00 0.00 0.00 28 1006.9
20260507230548 16 332 12.9 29.0 0.00 0.00 0.00 28 1006.9
20260507225546 16 319 12.9 20.9 0.00 0.00 0.00 28 1007.0
20260507225044 16 306 6.4 25.7 0.00 0.00 0.00 29 1007.0
20260507224547 16 263 8.0 25.7 0.00 0.00 0.00 28 1007.2
20260507224042 16 273 9.7 29.0 0.00 0.00 0.00 29 1007.1
20260507223542 16 274 14.5 29.0 0.00 0.00 0.00 28 1007.0
20260507223042 16 329 17.7 27.4 0.00 0.00 0.00 28 1007.1
20260507222542 16 298 4.8 22.5 0.00 0.00 0.00 28 1007.2
20260507222040 16 287 11.3 19.3 0.00 0.00 0.00 29 1007.3
20260507221543 16 263 9.7 20.9 0.00 0.00 0.00 28 1007.3
20260507221039 15 300 8.0 20.9 0.00 0.00 0.00 29 1007.3
20260507220542 16 263 8.0 22.5 0.00 0.00 0.00 29 1007.4
20260507220041 16 270 11.3 25.7 0.00 0.00 0.00 29 1007.4
20260507215538 16 309 11.3 37.0 0.00 0.00 0.00 28 1007.5
20260507215037 16 266 14.5 37.0 0.00 0.00 0.00 29 1007.5
20260507214538 16 269 11.3 33.8 0.00 0.00 0.00 29 1007.6
20260507214036 15 315 9.7 22.5 0.00 0.00 0.00 29 1007.6
20260507213536 16 267 11.3 25.7 0.00 0.00 0.00 29 1007.9